DECAYED

OBJECT S, 57020 (Decayed)

Orbit data source: Space-Track

You're viewing an Uncataloged Satellite

Recently launched and/or uncataloged satellites may have evolving metadata. Metadata may include but not limited to: Owner, Maufacturer, Bus, Motor, and Mission.

OBJECT S, 57020 was a Chinese satellite in LEO that was launched on Thu, 15 Jun 2023 UTC via a CHANG ZHENG 2D launch vehicle from the Taiyaun Space Center, China (TSC). Unknown objects in Earth's orbit typically refer to objects detected orbiting the Earth but have not yet been identified or cataloged. These objects could be anything from previously untracked satellites, spent rocket stages, debris from satellite collisions, or even natural meteoroids temporarily captured by Earth's gravity. This object's orbit decayed before it could be identified.

Not visible in the next 10 days
Identifier
57020, 2023-085S
Orbit
Decayed
Country
Flag of CNCN / PRC
Related business
None
Manufacturer
Unknown
Mission
Decayed Commercial Imaging
Bus & Motor
Unknown
Mass
Unknown
Launch date (UTC)
2023-06-15 (3 years ago)
Launch vehicle
CHANG ZHENG 2D
Launch site
Taiyaun Space Center, China (TSC)
Object type
Unknown
Shape & HBR
Box, 0.8 m
Radar Cross Section
2.000 m², Medium (>0.1 m² and < 1m²)

Expand to show TLE details & history
Last TLE update: 9 months ago

TLE from 9 months ago
0 OBJECT S
1 57020U 23085S   25272.89447634  .18501208  26030-5  37470-3 0  9990
2 57020  97.4534  36.4948 0009767 274.5234  85.4953 16.46480378128134
Epoch: 2025-09-29T21:28Z
TLE epoch observation values (Epoch: 2025-09-29T21:28:02.755Z)
Latitude
-0.00003°
Longitude
65.59168°
Altitude
151.384 km
Speed
7.816 km/s
True Right ascension
02h 25m 58s
True Declination
0° 00' 00"
Sunlit
Object was in full shadow at epoch
Visualization orbit readout
Latitude
Unknown
Longitude
Unknown
Altitude
Unknown
Speed
Unknown
Apparent Right ascension
Unknown
Apparent Declination
Unknown
Sunlit
N/A
Visualization observer readout
Local Sidereal Time
21:31:38
Azimuth
Unknown
Elevation
Unknown
Doppler factor
Unknown
Orbital elements
Apogee altitude
151.794 km
Perigee altitude
139.05 km
Semi-major axis
6,523.559 km
Eccentricity
0.00098
Inclination
97.4534°
RAAN
36.4948°
Arg. of periapsis
274.5234°
True anomaly
85.60689°
Mean anomaly
85.4953°
Eccentric anomaly
85.55109°
Mean motion
4.11923 °/min
Orbital period
87.39 mins
BSTAR
0.0003747
Loading maneuver chart data...
Computing Atmospheric mass density...
Loading historical data...
Loading historical data...
Loading historical data...
Loading historical data...
Loading historical data...
Loading historical data...
Loading historical data...

Documentation

Showing up to 5 results
|